TimeCST,TemperatureF,Dew PointF,Humidity,Sea Level PressureIn,VisibilityMPH,Wind Direction,Wind SpeedMPH,Gust SpeedMPH,PrecipitationIn,Events,Conditions,WindDirDegrees,DateUTC
12:53 AM,35.1,28.9,78,29.95,10.0,North,5.8,-,N/A,,Clear,10,2013-02-05 06:53:00
1:53 AM,33.1,28.0,82,29.96,10.0,North,5.8,-,N/A,,Clear,360,2013-02-05 07:53:00
2:53 AM,30.9,27.0,85,29.96,10.0,Calm,Calm,-,N/A,,Clear,0,2013-02-05 08:53:00
3:53 AM,30.0,27.0,88,29.96,9.0,North,3.5,-,N/A,,Clear,10,2013-02-05 09:53:00
4:53 AM,28.0,26.1,92,29.96,7.0,Calm,Calm,-,N/A,,Clear,0,2013-02-05 10:53:00
5:53 AM,28.0,26.1,92,29.97,5.0,Calm,Calm,-,N/A,,Clear,0,2013-02-05 11:53:00
6:53 AM,27.0,25.0,92,30.01,4.0,Calm,Calm,-,N/A,,Clear,0,2013-02-05 12:53:00
7:14 AM,28.4,26.6,93,30.01,2.5,Calm,Calm,-,N/A,,Clear,0,2013-02-05 13:14:00
7:25 AM,28.4,26.6,93,30.00,3.0,Calm,Calm,-,N/A,,Clear,0,2013-02-05 13:25:00
7:34 AM,28.4,26.6,93,30.00,2.5,Calm,Calm,-,N/A,,Clear,0,2013-02-05 13:34:00
7:53 AM,30.0,28.0,92,30.01,3.0,Calm,Calm,-,N/A,,Clear,0,2013-02-05 13:53:00
8:53 AM,32.0,28.9,88,30.03,4.0,Calm,Calm,-,N/A,,Clear,0,2013-02-05 14:53:00
9:53 AM,35.1,30.0,82,30.03,5.0,Calm,Calm,-,N/A,,Haze,0,2013-02-05 15:53:00
10:53 AM,42.1,34.0,73,30.02,9.0,Calm,Calm,-,N/A,,Clear,0,2013-02-05 16:53:00
11:53 AM,46.9,36.0,66,29.99,10.0,Variable,6.9,-,N/A,,Clear,0,2013-02-05 17:53:00
12:53 PM,48.9,37.9,66,29.96,10.0,SSW,11.5,-,N/A,,Clear,210,2013-02-05 18:53:00
1:53 PM,50.0,39.0,66,29.96,10.0,SSW,9.2,-,N/A,,Clear,210,2013-02-05 19:53:00
2:53 PM,53.1,41.0,64,29.95,10.0,SSW,9.2,-,N/A,,Clear,210,2013-02-05 20:53:00
3:53 PM,54.0,39.0,57,29.95,10.0,SW,9.2,-,N/A,,Clear,230,2013-02-05 21:53:00
4:53 PM,52.0,39.9,63,29.96,10.0,SSW,9.2,-,N/A,,Clear,210,2013-02-05 22:53:00
5:53 PM,48.9,37.9,66,29.97,10.0,Calm,Calm,-,N/A,,Clear,0,2013-02-05 23:53:00
6:53 PM,41.0,36.0,82,30.00,10.0,East,3.5,-,N/A,,Clear,100,2013-02-06 00:53:00
7:53 PM,39.0,36.0,89,30.03,10.0,Calm,Calm,-,N/A,,Clear,0,2013-02-06 01:53:00
8:53 PM,36.0,35.1,97,30.05,7.0,NE,5.8,-,N/A,,Clear,40,2013-02-06 02:53:00
9:41 PM,33.8,33.8,100,30.07,2.0,Calm,Calm,-,N/A,,Clear,0,2013-02-06 03:41:00
9:48 PM,33.8,33.8,100,30.07,1.0,Calm,Calm,-,N/A,,Mist,0,2013-02-06 03:48:00
9:53 PM,35.6,33.8,93,30.07,0.8,Calm,Calm,-,N/A,,Mist,0,2013-02-06 03:53:00
10:03 PM,35.6,33.8,93,30.07,0.2,Calm,Calm,-,N/A,Fog,Fog,0,2013-02-06 04:03:00
10:11 PM,35.6,33.8,93,30.08,0.5,Calm,Calm,-,N/A,Fog,Fog,0,2013-02-06 04:11:00
10:19 PM,33.8,33.8,100,30.08,1.2,WSW,3.5,-,N/A,,Partly Cloudy,240,2013-02-06 04:19:00
10:23 PM,33.8,32.0,93,30.08,3.0,Calm,Calm,-,N/A,,Partly Cloudy,0,2013-02-06 04:23:00
10:33 PM,32.0,30.2,93,30.08,1.5,NE,4.6,-,N/A,,Partly Cloudy,50,2013-02-06 04:33:00
10:35 PM,32.0,30.2,93,30.08,0.8,NE,3.5,-,N/A,,Mist,40,2013-02-06 04:35:00
10:44 PM,33.8,32.0,93,30.09,0.5,ENE,3.5,-,N/A,Fog,Fog,70,2013-02-06 04:44:00
10:49 PM,33.8,32.0,93,30.09,2.0,ENE,3.5,-,N/A,,Clear,70,2013-02-06 04:49:00
10:53 PM,34.0,33.1,96,30.10,2.5,Calm,Calm,-,N/A,,Clear,0,2013-02-06 04:53:00
10:56 PM,33.8,33.8,100,30.09,0.8,Calm,Calm,-,N/A,,Clear,0,2013-02-06 04:56:00
11:01 PM,32.0,30.2,93,30.10,0.2,Calm,Calm,-,N/A,Fog,Fog,0,2013-02-06 05:01:00
11:30 PM,33.8,30.2,87,30.10,0.5,NNE,6.9,-,N/A,Fog,Fog,20,2013-02-06 05:30:00
11:44 PM,30.2,30.2,100,30.10,2.0,NNE,6.9,-,N/A,,Clear,20,2013-02-06 05:44:00
11:53 PM,32.0,30.9,96,30.11,4.0,North,8.1,-,N/A,,Clear,10,2013-02-06 05:53:00